Simultaneous Nadir Overpasses (SNOs) Predictions

Prediction of SNOs between GOES-14 and NPP Satellite Orbit:

Table of predicted SNOs for the next 14.0 days since TLE Epoch: 11/2/2024
Index Date Time (GOES-14) GOES-14 Lat,Lon NPP Lat,Lon Distance(km) Time Diff (sec)
1 11/02/2024 08:51:21 -0.06,-108.62 0.55,-111.22 296.33 80
2 11/03/2024 08:29:56 -0.06,-108.62 -0.47,-106.69 219.74 80
3 11/04/2024 20:54:32 0.05,-108.55 -0.70,-111.99 391.43 80
4 11/05/2024 20:35:47 0.05,-108.55 0.28,-107.45 124.78 80
5 11/07/2024 08:57:34 -0.04,-108.61 0.91,-112.72 468.58 80
6 11/08/2024 08:36:10 -0.05,-108.61 -0.14,-108.19 47.16 80
7 11/10/2024 20:42:00 0.05,-108.53 -0.06,-108.95 48.37 80
8 11/11/2024 20:20:35 0.06,-108.53 1.00,-104.43 468.01 80
9 11/13/2024 08:45:01 -0.04,-108.59 0.20,-109.69 124.53 80
10 11/14/2024 08:23:36 -0.05,-108.59 -0.82,-105.15 391.49 80
11 11/15/2024 20:48:10 0.03,-108.51 -0.40,-110.44 220.20 80
